www.pogodaiklimat.ru

Погода и климат >> Архив погоды >> Румыния >> Шири


ПОГОДА в Шири

  • Прогноз погоды в Шири
  • Монитор погоды в Шири

АРХИВ ПОГОДЫ в Шири

Время (UTC), дата Ветер
(напр.,м/с)
 
Видим.   Явления Облачность Т
(С)
Тd
(С)
f
(%)
Тe
(С)
Тes
(С)
Комфортность P
(гПа)
Po
(гПа)
Тmin
(С)
Tmax
(С)
R
(мм)
R24
(мм)
S
(см)
09 18.03 ЮЗ 3 н/о н/о +11.1 +4.0 62 +9 +9 1013.9 957.8
12 18.03 ЮЗ 4 н/о н/о +14.4 +5.0 53 +13 +13 1013.3 957.9
15 18.03 З 3 н/о н/о +16.1 +3.7 44 +16 +16 1012.5 957.4
18 18.03 С 4 н/о н/о +10.1 +1.8 56 +8 +8 1015.2 958.8 +7.7 +17.5
21 18.03 С 4 н/о н/о +5.5 +1.8 77 +2 +2 1018.2 960.7
00 19.03 С 4 н/о н/о +4.0 +2.7 91 -1 -1 1020.0 962.1
03 19.03 С 5 н/о н/о +3.7 +2.6 93 -2 -2 1019.7 961.8
06 19.03 С 3 н/о н/о +3.4 +2.3 92 -1 -1 1021.5 963.4 +3.1 +10.1
09 19.03 С 4 н/о н/о +5.5 +1.3 74 +2 +2 1021.6 964.0
12 19.03 С 2 н/о н/о +8.7 +1.4 60 +7 +7 1021.6 964.5
15 19.03 С 2
{7}
н/о н/о +8.5 +1.2 60 +7 +7 1021.9 964.8
18 19.03 С 2
{9}
н/о н/о +6.7 -3.8 47 +5 +5 1023.8 966.2 +3.4 +9.6
21 19.03 С 4
{9}
н/о н/о +5.5 -3.3 53 +2 +2 1025.5 967.6
00 20.03 С 2
{7}
н/о н/о +4.5 -2.7 60 +2 +2 1027.0 968.8
03 20.03 С 2
{8}
н/о н/о +3.6 -2.4 65 +1 +1 1027.5 969.2
06 20.03 С 4
{9}
н/о н/о +2.7 -2.4 69 -2 -2 1028.9 970.3 +2.6 +6.7
09 20.03 С 3
{7}
н/о н/о +5.3 -1.2 63 +2 +2 1030.3 972.1
12 20.03 С 2
{9}
н/о н/о +8.5 -4.2 40 +7 +7 1030.6 973.0
15 20.03 С 2
{7}
н/о н/о +8.5 -6.7 33 +7 +7 1030.5 973.0
18 20.03 СВ 1
{4}
н/о н/о +7.2 -4.7 42 +7 +7 1032.2 974.2 +2.7 +9.7
21 20.03 С 3
{8}
н/о н/о +4.4 -5.3 49 +1 +1 1033.4 974.8
00 21.03 СВ 4
{9}
н/о н/о +5.0 -4.3 51 +2 +2 1034.0 975.6
03 21.03 СВ 3
{7}
н/о н/о +3.8 -3.7 58 +1 +1 1034.4 975.7
06 21.03 СВ 3
{11}
н/о н/о +3.8 -6.5 47 +1 +1 1035.2 976.4 +2.5 +7.3
09 21.03 С 3
{7}
н/о н/о +7.0 -5.3 41 +5 +5 1035.7 977.5
12 21.03 С 3
{9}
н/о н/о +9.4 -5.9 33 +8 +8 1034.5 976.8
15 21.03 С 2
{7}
н/о н/о +10.5 -5.1 33 +10 +10 1032.6 975.3
18 21.03 С 2
{6}
н/о н/о +7.4 -6.0 38 +6 +6 1033.3 975.4 +3.8 +11.6
21 21.03 С 2
{6}
н/о н/о +6.5 -5.7 41 +5 +5 1033.5 975.4
00 22.03 С 2
{6}
н/о н/о +6.6 -5.6 41 +5 +5 1033.3 975.2
03 22.03 С 3
{7}
н/о н/о +6.6 -6.3 39 +4 +4 1032.6 974.6
06 22.03 С 2
{7}
н/о н/о +6.7 -6.3 39 +5 +5 1033.1 975.1 +5.4 +7.4
09 22.03 СВ 2
{5}
н/о н/о +11.0 -4.7 33 +10 +10 1032.3 975.1
12 22.03 СЗ 3
{6}
н/о н/о +13.6 -2.8 32 +13 +13 1030.9 974.3
15 22.03 С 2
{9}
н/о н/о +13.9 +1.3 42 +14 +14 1028.8 972.4
18 22.03 С 2
{7}
н/о н/о +10.8 +2.4 56 +10 +10 1028.9 971.8 +6.6 +15.1
21 22.03 СВ 3
{9}
н/о н/о +9.4 +3.6 67 +7 +7 1029.1 971.8
00 23.03 СВ 4
{10}
н/о н/о +8.8 +3.6 70 +6 +6 1028.2 970.8
03 23.03 СВ 4
{10}
н/о н/о +6.7 +3.3 79 +3 +3 1027.2 969.5
06 23.03 СВ 3
{8}
н/о н/о +6.8 +2.7 75 +4 +4 1027.5 969.7 +6.2 +10.8
09 23.03 С 3
{4}
н/о н/о +9.6 +3.2 64 +8 +8 1027.3 970.2
12 23.03 СЗ 3
{9}
н/о н/о +15.5 -4.0 26 +15 +15 1025.3 969.4
15 23.03 С 3
{8}
н/о н/о +15.8 -4.8 24 +16 +16 1023.6 967.8
18 23.03 С 4
{9}
н/о н/о +11.8 -5.4 30 +10 +10 1024.3 967.7 +6.1 +16.5
21 23.03 СВ 2
{9}
н/о н/о +11.7 -7.8 25 +11 +11 1024.9 968.3
00 24.03 СВ 3
{9}
н/о н/о +11.5 -7.2 26 +10 +10 1024.3 967.7
03 24.03 С 3
{6}
н/о н/о +10.7 -7.5 27 +9 +9 1023.9 967.1
06 24.03 Ю 1
{2}
н/о н/о +11.6 -8.1 24 +12 +12 1024.0 967.4 +10.4 +12.3
09 24.03 ЮЗ 3
{5}
н/о н/о +13.7 -0.3 38 +13 +13 1023.6 967.5
12 24.03 З 2
{7}
н/о н/о +18.2 +1.9 34 +19 +19 1021.4 966.2
15 24.03 ЮЗ 3
{7}
н/о н/о +17.3 +0.6 32 +17 +17 1018.8 963.6
18 24.03 Ю 4
{5}
н/о н/о +13.7 +1.0 42 +12 +12 1018.1 962.2 +11.4 +19.5
21 24.03 Ю 6
{8}
н/о н/о +13.1 -2.1 35 +11 +11 1017.2 961.2
00 25.03 Ю 6
{8}
н/о н/о +12.6 -4.4 30 +11 +11 1015.9 959.9
03 25.03 Ю 6
{8}
н/о н/о +11.2 -6.4 29 +9 +9 1014.0 957.9
06 25.03 Ю 2
{8}
н/о н/о +10.5 -4.9 33 +10 +10 1013.6 957.3 +10.0 +13.9

 

Местоположение метеостанции Шири (Румыния): широта 46.25 долгота 21.65 высота над уровнем моря 473 м.

В архиве по умолчанию представлена погода в Шири за последнюю неделю. Архивные данные за месяц целиком и за предыдущие месяцы, начиная с января 2011 года, Вы можете получить, выбрав интересующий диапазон дат из раскрывающегося списка и нажав кнопку "Ввод!".


*Определитесь, кто Вы:
робот инопланетянин человек

Внимание! Время в таблицах - всемирное. Для получения местного времени необходимо прибавить поправку, которая равна 2 ч.

Смотрите также архив погоды в соседних городах и на ближайших метеорологических станциях:

Погода в Араде (Румыния) (27 км)
Погода в Кишинеу-Криш (Румыния) (32 км)
Погода в Варадия де Муреш (Румыния) (46 км)
Погода в Гурахонте (Румыния) (52 км)
Погода в Думбравита де Кодру (Румыния) (58 км)
Погода в Бекешчабе (Венгрия) (60 км)
Погода в Тимишоаре (Румыния) (62 км)
Погода в Лугоже (Румыния) (67 км)
Погода в Холоде (Румыния) (69 км)
Погода в Штее (Румыния) (70 км)

Пояснения к столбцам:

Ветер - указаны скорость ветра в м/с - средняя за 10 мин, порывы в срок и между сроками (в фигурных скобках) и направление, откуда дует ветер: С - северный, СВ - северо-восточный, В - восточный, ЮВ - юго-восточный, Ю - южный, ЮЗ - юго-западный, З - западный, СЗ - северо-западный.
Видимость - горизонтальная дальность видимости в метрах или километрах. При видимости от 1 до 10 км при отсутствии осадков обычно наблюдается дымка, при ухудшении видимости до 1 км и менее - туман. В сухую погоду видимость может ухудшаться дымом, пылью или мглою.
Явления - указаны атмосферные явления, наблюдавшиеся в срок или в последний час перед сроком; фигурными скобками обозначены явления, наблюдавшиеся между сроками (за 1-3 часа до срока); квадратными скобками обозначены град или гололедные отложения с указанием их диаметра в мм.
Облачность - указаны через наклонную черту общая и нижняя облачность в баллах и высота нижней границы облаков в метрах; квадратными скобками обозначены формы облаков: Ci - перистые, Cs - перисто-слоистые, Cc - перисто-кучевые, Ac - высококучевые, As - высокослоистые, Sc - слоисто-кучевые, Ns - слоисто-дождевые, Cu - кучевые, Cb - кучево-дождевые. Подробнее классификацию облаков см. в Атласе облаков (PDF).
T - Температура воздуха - температура, измеренная на высоте 2 м над землей.
Td - Температура точки росы - температура, при понижении до которой содержащийся в воздухе водяной пар достигнет насыщения.
f - Относительная влажность воздуха - влажноcть воздуха, измеренная на высоте 2 м над землей.
Te - Эффективная температура - температура, которую ощущает одетый по сезону человек в тени. Характеристика душности погоды. При расчете учитывается влияние влажности воздуха и скорости ветра на теплоощущения человека.
Tes - Эффективная температура на солнце - температура, которую ощущает человек, с поправкой на солнечный нагрев. Характеристика знойности погоды. Зависит от высоты солнца над горизонтом, облачности и скорости ветра. Ночью, в пасмурную погоду, а также при ветре 12 м/с и более поправка равна нулю.
P - Атмосферное давление - приведенное к уровню моря атмосферное давление.
Po - Атмосферное давление - измеренное на уровне метеостанции атмосферное давление.
Tmin - Минимальная температура - минимум температуры воздуха на высоте 2 м над землей.
Tmax - Максимальная температура - максимум температуры воздуха на высоте 2 м над землей.
R - Количество осадков - Количество выпавших осадков за период времени, мм. При наведении курсора мыши на число - период времени, за который выпало указанное количество осадков.
R24 - Количество осадков - Количество выпавших осадков за 24 часа, мм.
S - Снежный покров - Высота снежного покрова, см. При наведении курсора мыши на число - состояние снежного покрова и степень покрытия местности в баллах.